This demonstration page uses our WeatherBlox Daily Observations layout. Learn more.

Left ArrowRight Arrow

Hourly Observations for November 17, 2020

Temp ( °F °C ) Dew Point ( °F °C ) Humidity (%) Winds ( mph kmh ) Pressure ( in mb ) Visibility ( mi km ) Precip ( " mm )
12:54 am 00:54 Clear 28 -2.2 21 -6.1 75 75 NE 8 13 30.44 1031 10 16.0934 0 0
1:54 am 01:54 Clear 30 -1.1 22 -5.6 72 72 N 3 6 30.45 1031 10 16.0934 0 0
2:54 am 02:54 Clear 29 -1.7 21 -6.1 72 72 Calm 30.46 1032 10 16.0934 0 0
3:54 am 03:54 Clear 28 -2.2 21 -6.1 75 75 NNW 3 6 30.47 1032 10 16.0934 0 0
4:54 am 04:54 Cloudy 27 -2.8 22 -5.6 81 81 N 6 9 30.48 1032 10 16.0934 0 0
5:54 am 05:54 Cloudy 29 -1.7 24 -4.4 82 82 NE 6 9 30.5 1033 10 16.0934 0 0
6:54 am 06:54 Mostly Cloudy 29 -1.7 24 -4.4 82 82 NE 6 9 30.52 1034 10 16.0934 0 0
7:54 am 07:54 Sunny 28 -2.2 23 -5 81 81 Calm 30.53 1034 10 16.0934 0 0
8:54 am 08:54 Sunny 38 3.3 29 -1.7 70 70 VRB 3 6 30.54 1034 10 16.0934 0 0
9:54 am 09:54 Sunny 44 6.7 28 -2.2 53 53 SSE 12 19 30.52 1034 10 16.0934 0 0
10:54 am 10:54 Sunny 49 9.4 29 -1.7 46 46 SSE 13 20 30.49 1032 10 16.0934 0 0
11:54 am 11:54 Sunny 53 11.7 30 -1.1 41 41 SE 14 22 30.45 1031 10 16.0934 0 0
12:54 pm 12:54 Sunny 56 13.3 30 -1.1 37 37 SE 15 24 30.4 1029 10 16.0934 0 0
1:54 pm 13:54 Sunny 59 15 30 -1.1 33 33 SSE 17 28 30.35 1028 10 16.0934 0 0
2:54 pm 14:54 Sunny 61 16.1 26 -3.3 26 26 S 22 35 30.3 1026 10 16.0934 0 0
3:54 pm 15:54 Sunny 60 15.6 27 -2.8 28 28 S 17 28 30.29 1026 10 16.0934 0 0
4:54 pm 16:54 Sunny 56 13.3 27 -2.8 33 33 SSE 12 19 30.28 1026 10 16.0934 0 0
5:54 pm 17:54 Clear 53 11.7 28 -2.2 38 38 SSE 12 19 30.28 1025 10 16.0934 0 0
6:54 pm 18:54 Clear 51 10.6 28 -2.2 41 41 SSE 13 20 30.28 1025 10 16.0934 0 0
7:54 pm 19:54 Clear 50 10 27 -2.8 41 41 SSE 15 24 30.27 1025 10 16.0934 0 0
8:54 pm 20:54 Clear 49 9.4 27 -2.8 43 43 S 15 24 30.24 1024 10 16.0934 0 0
9:54 pm 21:54 Clear 44 6.7 28 -2.2 53 53 S 13 20 30.22 1024 10 16.0934 0 0
10:54 pm 22:54 Clear 40 4.4 27 -2.8 60 60 S 9 15 30.21 1023 10 16.0934 0 0
11:54 pm 23:54 Clear 43 6.1 28 -2.2 56 56 SSE 12 19 30.19 1022 10 16.0934 0 0

Powered by AerisWeather